Time,TemperatureF,DewpointF,PressureIn,WindDirection,WindDirectionDegrees,WindSpeedMPH,WindSpeedGustMPH,Humidity,HourlyPrecipIn,Conditions,Clouds,dailyrainin,SolarRadiationWatts/m^2,SoftwareType,DateUTC
2013-11-19 00:12:00,50.6,45.0,30.12,NNW,329,0.0,0.0,81,0.00,,,0.00,0,weatherlink.com 1.10,2013-11-19 08:12:00,
2013-11-19 00:27:00,50.6,45.0,30.11,NNW,329,0.0,0.0,82,0.00,,,0.00,0,weatherlink.com 1.10,2013-11-19 08:27:00,
2013-11-19 00:42:00,50.5,46.0,30.10,NNW,329,0.0,0.0,84,0.00,,,0.00,0,weatherlink.com 1.10,2013-11-19 08:42:00,
2013-11-19 00:57:00,50.5,46.0,30.10,NNW,329,0.0,0.0,85,0.00,,,0.00,0,weatherlink.com 1.10,2013-11-19 08:57:00,
2013-11-19 01:12:00,50.4,47.0,30.10,NNW,329,0.0,0.0,87,0.00,,,0.00,0,weatherlink.com 1.10,2013-11-19 09:12:00,
2013-11-19 01:27:00,50.3,47.0,30.09,NNW,329,0.0,0.0,88,0.00,,,0.00,0,weatherlink.com 1.10,2013-11-19 09:27:00,
2013-11-19 01:42:00,50.2,47.0,30.10,NNW,329,0.0,0.0,89,0.01,,,0.01,0,weatherlink.com 1.10,2013-11-19 09:42:00,
2013-11-19 01:57:00,50.0,47.0,30.10,NNW,329,0.0,0.0,90,0.01,,,0.01,0,weatherlink.com 1.10,2013-11-19 09:57:00,
2013-11-19 02:12:00,49.9,47.0,30.09,NNW,329,0.0,0.0,91,0.01,,,0.01,0,weatherlink.com 1.10,2013-11-19 10:12:00,
2013-11-19 02:27:00,49.9,47.0,30.09,NNW,329,0.0,0.0,91,0.02,,,0.02,0,weatherlink.com 1.10,2013-11-19 10:27:00,
2013-11-19 02:42:00,49.9,48.0,30.09,NNW,329,0.0,0.0,92,0.01,,,0.02,0,weatherlink.com 1.10,2013-11-19 10:42:00,
2013-11-19 02:57:00,49.7,48.0,30.09,NNW,329,0.0,0.0,92,0.01,,,0.02,0,weatherlink.com 1.10,2013-11-19 10:57:00,
2013-11-19 03:12:00,49.6,48.0,30.10,NNW,329,0.0,0.0,93,0.00,,,0.02,0,weatherlink.com 1.10,2013-11-19 11:12:00,
2013-11-19 03:27:00,49.6,48.0,30.09,NNW,329,0.0,0.0,93,0.00,,,0.02,0,weatherlink.com 1.10,2013-11-19 11:27:00,
2013-11-19 03:42:00,49.6,48.0,30.09,NNW,329,0.0,0.0,93,0.00,,,0.02,0,weatherlink.com 1.10,2013-11-19 11:42:00,
2013-11-19 03:57:00,49.6,48.0,30.09,NNW,329,0.0,0.0,93,0.00,,,0.02,0,weatherlink.com 1.10,2013-11-19 11:57:00,
2013-11-19 04:12:00,49.7,48.0,30.10,NNW,329,0.0,0.0,93,0.00,,,0.02,0,weatherlink.com 1.10,2013-11-19 12:12:00,
2013-11-19 04:27:00,49.7,48.0,30.09,NNW,329,0.0,0.0,94,0.00,,,0.02,0,weatherlink.com 1.10,2013-11-19 12:27:00,
2013-11-19 04:42:00,49.7,48.0,30.09,NNW,329,0.0,0.0,94,0.00,,,0.02,0,weatherlink.com 1.10,2013-11-19 12:42:00,
2013-11-19 04:57:00,49.7,48.0,30.09,NNW,329,0.0,0.0,94,0.00,,,0.02,0,weatherlink.com 1.10,2013-11-19 12:57:00,
2013-11-19 05:12:00,49.8,48.0,30.09,NNW,329,0.0,0.0,94,0.00,,,0.02,0,weatherlink.com 1.10,2013-11-19 13:12:00,
2013-11-19 05:27:00,49.8,48.0,30.09,NNW,329,0.0,0.0,94,0.00,,,0.02,0,weatherlink.com 1.10,2013-11-19 13:27:00,
2013-11-19 05:42:00,49.9,48.0,30.09,NNW,329,0.0,0.0,94,0.00,,,0.02,0,weatherlink.com 1.10,2013-11-19 13:42:00,
2013-11-19 05:57:00,49.9,48.0,30.09,NNW,329,0.0,0.0,94,0.00,,,0.02,0,weatherlink.com 1.10,2013-11-19 13:57:00,
2013-11-19 06:12:00,49.9,48.0,30.09,NNW,329,0.0,0.0,94,0.00,,,0.02,0,weatherlink.com 1.10,2013-11-19 14:12:00,
2013-11-19 06:27:00,50.2,49.0,30.09,NNW,329,0.0,1.0,95,0.00,,,0.02,0,weatherlink.com 1.10,2013-11-19 14:27:00,
2013-11-19 06:42:00,50.4,49.0,30.09,NNW,329,0.0,1.0,95,0.00,,,0.02,0,weatherlink.com 1.10,2013-11-19 14:42:00,
2013-11-19 06:57:00,50.3,49.0,30.10,NNW,329,0.0,1.0,95,0.01,,,0.03,0,weatherlink.com 1.10,2013-11-19 14:57:00,
2013-11-19 07:12:00,50.1,49.0,30.10,NNW,329,0.0,0.0,95,0.01,,,0.03,0,weatherlink.com 1.10,2013-11-19 15:12:00,
2013-11-19 07:28:00,50.1,49.0,30.09,NNW,329,0.0,0.0,95,0.02,,,0.04,7,weatherlink.com 1.10,2013-11-19 15:28:00,
2013-11-19 07:43:00,50.6,49.0,30.10,SSW,209,1.0,4.0,95,0.03,,,0.05,12,weatherlink.com 1.10,2013-11-19 15:43:00,
2013-11-19 07:58:00,51.2,50.0,30.09,SSW,198,1.0,5.0,96,0.03,,,0.06,42,weatherlink.com 1.10,2013-11-19 15:58:00,
2013-11-19 08:13:00,51.6,51.0,30.09,SW,219,3.0,6.0,96,0.04,,,0.07,77,weatherlink.com 1.10,2013-11-19 16:13:00,
2013-11-19 08:28:00,52.1,51.0,30.09,SSW,205,5.0,7.0,95,0.03,,,0.07,90,weatherlink.com 1.10,2013-11-19 16:28:00,
2013-11-19 08:43:00,52.2,51.0,30.08,SW,230,5.0,7.0,95,0.02,,,0.07,90,weatherlink.com 1.10,2013-11-19 16:43:00,
2013-11-19 08:58:00,52.3,51.0,30.10,SW,221,2.0,5.0,95,0.01,,,0.07,60,weatherlink.com 1.10,2013-11-19 16:58:00,
2013-11-19 09:13:00,52.5,51.0,30.09,SW,228,3.0,5.0,95,0.00,,,0.07,113,weatherlink.com 1.10,2013-11-19 17:13:00,
2013-11-19 09:28:00,52.9,52.0,30.09,SW,218,5.0,10.0,95,0.00,,,0.07,127,weatherlink.com 1.10,2013-11-19 17:28:00,
2013-11-19 09:43:00,53.1,52.0,30.10,SW,215,4.0,6.0,94,0.00,,,0.07,139,weatherlink.com 1.10,2013-11-19 17:43:00,
2013-11-19 09:58:00,53.6,52.0,30.10,South,190,6.0,6.0,94,0.00,,,0.07,109,weatherlink.com 1.10,2013-11-19 17:58:00,
2013-11-19 10:13:00,53.8,52.0,30.09,SSW,194,5.0,7.0,93,0.00,,,0.07,81,weatherlink.com 1.10,2013-11-19 18:13:00,
2013-11-19 10:28:00,53.9,52.0,30.09,South,177,4.0,6.0,92,0.00,,,0.07,81,weatherlink.com 1.10,2013-11-19 18:28:00,
2013-11-19 10:43:00,54.2,52.0,30.07,SSW,205,2.0,7.0,92,0.00,,,0.07,84,weatherlink.com 1.10,2013-11-19 18:43:00,
2013-11-19 10:58:00,54.5,53.0,30.07,South,189,5.0,6.0,93,0.01,,,0.08,121,weatherlink.com 1.10,2013-11-19 18:58:00,
2013-11-19 11:13:00,54.6,52.0,30.07,South,185,2.0,6.0,92,0.01,,,0.08,149,weatherlink.com 1.10,2013-11-19 19:13:00,
2013-11-19 11:28:00,55.0,53.0,30.07,SSW,198,0.0,5.0,92,0.01,,,0.08,146,weatherlink.com 1.10,2013-11-19 19:28:00,
2013-11-19 11:43:00,55.3,53.0,30.06,SSW,209,1.0,6.0,91,0.01,,,0.08,132,weatherlink.com 1.10,2013-11-19 19:43:00,
2013-11-19 11:58:00,55.4,53.0,30.05,WSW,238,3.0,7.0,90,0.00,,,0.08,132,weatherlink.com 1.10,2013-11-19 19:58:00,
2013-11-19 12:13:00,55.4,53.0,30.05,SW,227,3.0,6.0,90,0.00,,,0.08,91,weatherlink.com 1.10,2013-11-19 20:13:00,
2013-11-19 12:28:00,55.4,52.0,30.04,SW,222,5.0,9.0,89,0.00,,,0.08,79,weatherlink.com 1.10,2013-11-19 20:28:00,
2013-11-19 12:43:00,55.5,52.0,30.03,SW,230,4.0,7.0,89,0.00,,,0.08,113,weatherlink.com 1.10,2013-11-19 20:43:00,
2013-11-19 12:58:00,55.7,53.0,30.03,WSW,239,4.0,6.0,90,0.00,,,0.08,88,weatherlink.com 1.10,2013-11-19 20:58:00,
2013-11-19 13:13:00,55.7,53.0,30.03,WSW,240,3.0,9.0,89,0.00,,,0.08,95,weatherlink.com 1.10,2013-11-19 21:13:00,
2013-11-19 13:28:00,55.7,53.0,30.02,SW,232,4.0,8.0,90,0.00,,,0.08,105,weatherlink.com 1.10,2013-11-19 21:28:00,
2013-11-19 13:43:00,55.7,53.0,30.01,SSW,194,1.0,7.0,90,0.00,,,0.08,65,weatherlink.com 1.10,2013-11-19 21:43:00,
2013-11-19 13:58:00,55.5,53.0,30.01,South,187,5.0,8.0,90,0.00,,,0.08,49,weatherlink.com 1.10,2013-11-19 21:58:00,
2013-11-19 14:13:00,55.3,53.0,30.01,SSW,207,3.0,7.0,91,0.00,,,0.08,44,weatherlink.com 1.10,2013-11-19 22:13:00,
2013-11-19 14:28:00,55.2,53.0,30.00,SSW,208,3.0,7.0,91,0.00,,,0.08,33,weatherlink.com 1.10,2013-11-19 22:28:00,
2013-11-19 14:58:00,55.4,53.0,29.99,SSW,202,3.0,8.0,92,0.00,,,0.08,44,weatherlink.com 1.10,2013-11-19 22:58:00,
2013-11-19 15:13:00,55.4,53.0,29.99,SSW,207,3.0,7.0,92,0.00,,,0.08,44,weatherlink.com 1.10,2013-11-19 23:13:00,
2013-11-19 15:29:00,55.2,53.0,29.98,SW,217,2.0,8.0,93,0.00,,,0.08,33,weatherlink.com 1.10,2013-11-19 23:29:00,
2013-11-19 15:44:00,54.9,53.0,29.98,SSW,211,6.0,9.0,93,0.00,,,0.08,21,weatherlink.com 1.10,2013-11-19 23:44:00,
2013-11-19 15:59:00,54.8,53.0,29.98,SSW,197,1.0,6.0,94,0.00,,,0.08,16,weatherlink.com 1.10,2013-11-19 23:59:00,
2013-11-19 16:14:00,54.8,53.0,29.97,South,188,4.0,6.0,94,0.00,,,0.08,12,weatherlink.com 1.10,2013-11-20 00:14:00,
2013-11-19 16:29:00,54.8,53.0,29.97,South,182,2.0,6.0,94,0.01,,,0.09,5,weatherlink.com 1.10,2013-11-20 00:29:00,
2013-11-19 16:44:00,54.6,53.0,29.97,SSW,196,1.0,7.0,95,0.01,,,0.09,0,weatherlink.com 1.10,2013-11-20 00:44:00,
2013-11-19 16:59:00,54.6,53.0,29.96,SSW,207,3.0,7.0,95,0.01,,,0.09,0,weatherlink.com 1.10,2013-11-20 00:59:00,
2013-11-19 17:14:00,54.7,53.0,29.96,SSW,213,3.0,6.0,95,0.01,,,0.09,0,weatherlink.com 1.10,2013-11-20 01:14:00,
2013-11-19 17:29:00,54.8,53.0,29.96,SSW,212,2.0,7.0,95,0.00,,,0.09,0,weatherlink.com 1.10,2013-11-20 01:29:00,
2013-11-19 17:44:00,54.8,54.0,29.96,SSW,192,3.0,6.0,96,0.01,,,0.10,0,weatherlink.com 1.10,2013-11-20 01:44:00,
2013-11-19 17:59:00,54.8,54.0,29.95,SSW,207,0.0,5.0,96,0.02,,,0.11,0,weatherlink.com 1.10,2013-11-20 01:59:00,
2013-11-19 18:14:00,54.9,54.0,29.96,SSW,204,0.0,5.0,96,0.03,,,0.12,0,weatherlink.com 1.10,2013-11-20 02:14:00,
2013-11-19 18:29:00,54.9,54.0,29.95,South,186,4.0,7.0,96,0.03,,,0.12,0,weatherlink.com 1.10,2013-11-20 02:29:00,
2013-11-19 18:44:00,54.9,54.0,29.95,SSW,211,0.0,5.0,96,0.04,,,0.14,0,weatherlink.com 1.10,2013-11-20 02:44:00,
2013-11-19 18:59:00,55.0,54.0,29.95,South,190,3.0,7.0,96,0.05,,,0.16,0,weatherlink.com 1.10,2013-11-20 02:59:00,
2013-11-19 19:29:00,55.1,54.0,29.96,SSW,200,0.0,1.0,96,0.13,,,0.25,0,weatherlink.com 1.10,2013-11-20 03:29:00,
2013-11-19 19:44:00,55.2,54.0,29.95,SSW,202,0.0,1.0,96,0.18,,,0.32,0,weatherlink.com 1.10,2013-11-20 03:44:00,
2013-11-19 19:59:00,55.2,54.0,29.95,WSW,237,0.0,4.0,96,0.18,,,0.34,0,weatherlink.com 1.10,2013-11-20 03:59:00,
2013-11-19 20:14:00,55.1,54.0,29.95,SW,236,0.0,0.0,96,0.20,,,0.38,0,weatherlink.com 1.10,2013-11-20 04:14:00,
2013-11-19 20:29:00,55.1,54.0,29.95,SW,236,0.0,0.0,96,0.19,,,0.44,0,weatherlink.com 1.10,2013-11-20 04:29:00,
2013-11-19 20:44:00,55.2,54.0,29.95,SW,236,0.0,0.0,96,0.13,,,0.45,0,weatherlink.com 1.10,2013-11-20 04:44:00,
2013-11-19 20:59:00,55.3,54.0,29.95,SW,236,0.0,0.0,96,0.12,,,0.47,0,weatherlink.com 1.10,2013-11-20 04:59:00,
2013-11-19 21:14:00,55.4,54.0,29.95,West,261,0.0,0.0,96,0.09,,,0.48,0,weatherlink.com 1.10,2013-11-20 05:14:00,
2013-11-19 21:29:00,55.5,55.0,29.95,SW,233,0.0,3.0,97,0.05,,,0.49,0,weatherlink.com 1.10,2013-11-20 05:29:00,
2013-11-19 21:44:00,55.7,55.0,29.95,SSW,196,0.0,4.0,97,0.04,,,0.49,0,weatherlink.com 1.10,2013-11-20 05:44:00,
2013-11-19 21:59:00,55.8,55.0,29.95,SSW,205,0.0,6.0,97,0.03,,,0.50,0,weatherlink.com 1.10,2013-11-20 05:59:00,
2013-11-19 22:14:00,55.8,55.0,29.94,SW,221,0.0,6.0,97,0.02,,,0.50,0,weatherlink.com 1.10,2013-11-20 06:14:00,
2013-11-19 22:29:00,55.8,55.0,29.94,South,191,1.0,6.0,97,0.02,,,0.51,0,weatherlink.com 1.10,2013-11-20 06:29:00,
2013-11-19 22:44:00,55.9,55.0,29.94,SSW,192,3.0,6.0,97,0.02,,,0.51,0,weatherlink.com 1.10,2013-11-20 06:44:00,
2013-11-19 22:59:00,56.0,55.0,29.94,South,171,3.0,7.0,97,0.01,,,0.51,0,weatherlink.com 1.10,2013-11-20 06:59:00,
2013-11-19 23:14:00,56.1,55.0,29.94,SSW,193,2.0,6.0,97,0.01,,,0.51,0,weatherlink.com 1.10,2013-11-20 07:14:00,
2013-11-19 23:29:00,56.1,55.0,29.94,SSW,195,4.0,8.0,97,0.00,,,0.51,0,weatherlink.com 1.10,2013-11-20 07:29:00,
2013-11-19 23:44:00,56.2,55.0,29.94,SSE,163,3.0,11.0,97,0.00,,,0.51,0,weatherlink.com 1.10,2013-11-20 07:44:00,
2013-11-19 23:59:00,56.2,55.0,29.94,South,180,3.0,7.0,97,0.00,,,0.51,0,weatherlink.com 1.10,2013-11-20 07:59:00,